Year,Month,Day,Hour,Minute,Value (Times are PST for temperature in C)
2015,06,23,00,00,17.20
2015,06,23,00,01,17.20
2015,06,23,00,02,17.10
2015,06,23,00,03,17.10
2015,06,23,00,04,17.10
2015,06,23,00,05,17.10
2015,06,23,00,06,17.10
2015,06,23,00,07,17.10
2015,06,23,00,08,17.10
2015,06,23,00,09,17.10
2015,06,23,00,10,17.00
2015,06,23,00,11,17.00
2015,06,23,00,12,17.00
2015,06,23,00,13,17.00
2015,06,23,00,14,16.90
2015,06,23,00,15,16.90
2015,06,23,00,16,16.80
2015,06,23,00,17,16.80
2015,06,23,00,18,16.80
2015,06,23,00,19,16.80
2015,06,23,00,20,16.80
2015,06,23,00,21,16.80
2015,06,23,00,22,16.90
2015,06,23,00,23,16.90
2015,06,23,00,24,16.90
2015,06,23,00,25,16.90
2015,06,23,00,26,16.90
2015,06,23,00,27,16.90
2015,06,23,00,28,16.90
2015,06,23,00,29,16.90
2015,06,23,00,30,16.80
2015,06,23,00,31,16.80
2015,06,23,00,32,16.80
2015,06,23,00,33,16.80
2015,06,23,00,34,16.80
2015,06,23,00,35,16.80
2015,06,23,00,36,16.70
2015,06,23,00,37,16.70
2015,06,23,00,38,16.60
2015,06,23,00,39,16.60
2015,06,23,00,40,16.60
2015,06,23,00,41,16.60
2015,06,23,00,42,16.50
2015,06,23,00,43,16.50
2015,06,23,00,44,16.40
2015,06,23,00,45,16.40
2015,06,23,00,46,16.30
2015,06,23,00,47,16.30
2015,06,23,00,48,16.30
2015,06,23,00,49,16.20
2015,06,23,00,50,16.20
2015,06,23,00,51,16.20
2015,06,23,00,52,16.20
2015,06,23,00,53,16.10
2015,06,23,00,54,16.10
2015,06,23,00,55,16.10
2015,06,23,00,56,16.00
2015,06,23,00,57,16.00
2015,06,23,00,58,16.00
2015,06,23,00,59,15.90
2015,06,23,01,00,15.90
2015,06,23,01,01,15.90
2015,06,23,01,02,15.90
2015,06,23,01,03,15.90
2015,06,23,01,04,15.80
2015,06,23,01,05,15.80
2015,06,23,01,06,15.80
2015,06,23,01,07,15.80
2015,06,23,01,08,15.80
2015,06,23,01,09,15.80
2015,06,23,01,10,15.80
2015,06,23,01,11,15.70
2015,06,23,01,12,15.70
2015,06,23,01,13,15.70
2015,06,23,01,14,15.70
2015,06,23,01,15,15.70
2015,06,23,01,16,15.70
2015,06,23,01,17,15.70
2015,06,23,01,18,15.70
2015,06,23,01,19,15.70
2015,06,23,01,20,15.70
2015,06,23,01,21,15.70
2015,06,23,01,22,15.70
2015,06,23,01,23,15.70
2015,06,23,01,24,15.70
2015,06,23,01,25,15.70
2015,06,23,01,26,15.70
2015,06,23,01,27,15.70
2015,06,23,01,28,15.70
2015,06,23,01,29,15.70
2015,06,23,01,30,15.60
2015,06,23,01,31,15.60
2015,06,23,01,32,15.60
2015,06,23,01,33,15.60
2015,06,23,01,34,15.50
2015,06,23,01,35,15.50
2015,06,23,01,36,15.50
2015,06,23,01,37,15.50
2015,06,23,01,38,15.50
2015,06,23,01,39,15.50
2015,06,23,01,40,15.50
2015,06,23,01,41,15.60
2015,06,23,01,42,15.60
2015,06,23,01,43,15.70
2015,06,23,01,44,15.70
2015,06,23,01,45,15.70
2015,06,23,01,46,15.70
2015,06,23,01,47,15.70
2015,06,23,01,48,15.70
2015,06,23,01,49,15.80
2015,06,23,01,50,15.80
2015,06,23,01,51,15.70
2015,06,23,01,52,15.70
2015,06,23,01,53,15.70
2015,06,23,01,54,15.70
2015,06,23,01,55,15.60
2015,06,23,01,56,15.60
2015,06,23,01,57,15.50
2015,06,23,01,58,15.50
2015,06,23,01,59,15.40
2015,06,23,02,00,15.40
2015,06,23,02,01,15.30
2015,06,23,02,02,15.30
2015,06,23,02,03,15.20
2015,06,23,02,04,15.20
2015,06,23,02,05,15.20
2015,06,23,02,06,15.10
2015,06,23,02,07,15.10
2015,06,23,02,08,15.10
2015,06,23,02,09,15.10
2015,06,23,02,10,15.10
2015,06,23,02,11,15.10
2015,06,23,02,12,15.10
2015,06,23,02,13,15.10
2015,06,23,02,14,15.00
2015,06,23,02,15,15.00
2015,06,23,02,16,15.00
2015,06,23,02,17,15.00
2015,06,23,02,18,15.00
2015,06,23,02,19,14.90
2015,06,23,02,20,14.90
2015,06,23,02,21,14.90
2015,06,23,02,22,14.90
2015,06,23,02,23,14.90
2015,06,23,02,24,14.90
2015,06,23,02,25,14.90
2015,06,23,02,26,14.90
2015,06,23,02,27,14.90
2015,06,23,02,28,14.90
2015,06,23,02,29,14.90
2015,06,23,02,30,14.90
2015,06,23,02,31,14.90
2015,06,23,02,32,14.90
2015,06,23,02,33,14.90
2015,06,23,02,34,14.90
2015,06,23,02,35,14.90
2015,06,23,02,36,14.90
2015,06,23,02,37,14.80
2015,06,23,02,38,14.80
2015,06,23,02,39,14.80
2015,06,23,02,40,14.80
2015,06,23,02,41,14.80
2015,06,23,02,42,14.80
2015,06,23,02,43,14.80
2015,06,23,02,44,14.80
2015,06,23,02,45,14.80
2015,06,23,02,46,14.80
2015,06,23,02,47,14.80
2015,06,23,02,48,14.80
2015,06,23,02,49,14.80
2015,06,23,02,50,14.80
2015,06,23,02,51,14.80
2015,06,23,02,52,14.80
2015,06,23,02,53,14.80
2015,06,23,02,54,14.70
2015,06,23,02,55,14.70
2015,06,23,02,56,14.70
2015,06,23,02,57,14.70
2015,06,23,02,58,14.70
2015,06,23,02,59,14.70
2015,06,23,03,00,14.60
2015,06,23,03,01,14.60
2015,06,23,03,02,14.60
2015,06,23,03,03,14.60
2015,06,23,03,04,14.60
2015,06,23,03,05,14.60
2015,06,23,03,06,14.60
2015,06,23,03,07,14.70
2015,06,23,03,08,14.70
2015,06,23,03,09,14.70
2015,06,23,03,10,14.60
2015,06,23,03,11,14.60
2015,06,23,03,12,14.60
2015,06,23,03,13,14.60
2015,06,23,03,14,14.60
2015,06,23,03,15,14.50
2015,06,23,03,16,14.50
2015,06,23,03,17,14.50
2015,06,23,03,18,14.40
2015,06,23,03,19,14.40
2015,06,23,03,20,14.40
2015,06,23,03,21,14.40
2015,06,23,03,22,14.40
2015,06,23,03,23,14.40
2015,06,23,03,24,14.40
2015,06,23,03,25,14.40
2015,06,23,03,26,14.40
2015,06,23,03,27,14.40
2015,06,23,03,28,14.40
2015,06,23,03,29,14.40
2015,06,23,03,30,14.40
2015,06,23,03,31,14.40
2015,06,23,03,32,14.40
2015,06,23,03,33,14.30
2015,06,23,03,34,14.30
2015,06,23,03,35,14.30
2015,06,23,03,36,14.30
2015,06,23,03,37,14.30
2015,06,23,03,38,14.30
2015,06,23,03,39,14.30
2015,06,23,03,40,14.30
2015,06,23,03,41,14.30
2015,06,23,03,42,14.30
2015,06,23,03,43,14.20
2015,06,23,03,44,14.20
2015,06,23,03,45,14.20
2015,06,23,03,46,14.20
2015,06,23,03,47,14.20
2015,06,23,03,48,14.20
2015,06,23,03,49,14.20
2015,06,23,03,50,14.20
2015,06,23,03,51,14.20
2015,06,23,03,52,14.20
2015,06,23,03,53,14.20
2015,06,23,03,54,14.20
2015,06,23,03,55,14.20
2015,06,23,03,56,14.20
2015,06,23,03,57,14.20
2015,06,23,03,58,14.10
2015,06,23,03,59,14.10
2015,06,23,04,00,14.10
2015,06,23,04,01,14.10
2015,06,23,04,02,14.10
2015,06,23,04,03,14.00
2015,06,23,04,04,14.00
2015,06,23,04,05,14.00
2015,06,23,04,06,14.00
2015,06,23,04,07,14.00
2015,06,23,04,08,14.00
2015,06,23,04,09,14.00
2015,06,23,04,10,14.00
2015,06,23,04,11,14.10
2015,06,23,04,12,14.10
2015,06,23,04,13,14.10
2015,06,23,04,14,14.10
2015,06,23,04,15,14.10
2015,06,23,04,16,14.10
2015,06,23,04,17,14.10
2015,06,23,04,18,14.00
2015,06,23,04,19,14.00
2015,06,23,04,20,14.00
2015,06,23,04,21,13.90
2015,06,23,04,22,13.80
2015,06,23,04,23,13.80
2015,06,23,04,24,13.80
2015,06,23,04,25,13.70
2015,06,23,04,26,13.60
2015,06,23,04,27,13.60
2015,06,23,04,28,13.50
2015,06,23,04,29,13.50
2015,06,23,04,30,13.40
2015,06,23,04,31,13.30
2015,06,23,04,32,13.30
2015,06,23,04,33,13.20
2015,06,23,04,34,13.10
2015,06,23,04,35,13.10
2015,06,23,04,36,13.00
2015,06,23,04,37,13.00
2015,06,23,04,38,12.90
2015,06,23,04,39,12.80
2015,06,23,04,40,12.80
2015,06,23,04,41,12.70
2015,06,23,04,42,12.70
2015,06,23,04,43,12.60
2015,06,23,04,44,12.60
2015,06,23,04,45,12.60
2015,06,23,04,46,12.60
2015,06,23,04,47,12.60
2015,06,23,04,48,12.60
2015,06,23,04,49,12.50
2015,06,23,04,50,12.50
2015,06,23,04,51,12.50
2015,06,23,04,52,12.50
2015,06,23,04,53,12.40
2015,06,23,04,54,12.40
2015,06,23,04,55,12.30
2015,06,23,04,56,12.30
2015,06,23,04,57,12.30
2015,06,23,04,58,12.30
2015,06,23,04,59,12.30
2015,06,23,05,00,12.20
2015,06,23,05,01,12.20
2015,06,23,05,02,12.20
2015,06,23,05,03,12.30
2015,06,23,05,04,12.30
2015,06,23,05,05,12.30
2015,06,23,05,06,12.30
2015,06,23,05,07,12.40
2015,06,23,05,08,12.40
2015,06,23,05,09,12.50
2015,06,23,05,10,12.50
2015,06,23,05,11,12.50
2015,06,23,05,12,12.50
2015,06,23,05,13,12.40
2015,06,23,05,14,12.40
2015,06,23,05,15,12.40
2015,06,23,05,16,12.40
2015,06,23,05,17,12.40
2015,06,23,05,18,12.30
2015,06,23,05,19,12.30
2015,06,23,05,20,12.20
2015,06,23,05,21,12.10
2015,06,23,05,22,12.10
2015,06,23,05,23,12.00
2015,06,23,05,24,12.00
2015,06,23,05,25,12.00
2015,06,23,05,26,11.90
2015,06,23,05,27,11.90
2015,06,23,05,28,11.90
2015,06,23,05,29,11.80
2015,06,23,05,30,11.80
2015,06,23,05,31,11.80
2015,06,23,05,32,11.70
2015,06,23,05,33,11.70
2015,06,23,05,34,11.70
2015,06,23,05,35,11.60
2015,06,23,05,36,11.60
2015,06,23,05,37,11.60
2015,06,23,05,38,11.60
2015,06,23,05,39,11.50
2015,06,23,05,40,11.50
2015,06,23,05,41,11.50
2015,06,23,05,42,11.40
2015,06,23,05,43,11.40
2015,06,23,05,44,11.40
2015,06,23,05,45,11.40
2015,06,23,05,46,11.40
2015,06,23,05,47,11.40
2015,06,23,05,48,11.40
2015,06,23,05,49,11.50
2015,06,23,05,50,11.50
2015,06,23,05,51,11.60
2015,06,23,05,52,11.70
2015,06,23,05,53,11.80
2015,06,23,05,54,11.90
2015,06,23,05,55,12.00
2015,06,23,05,56,12.10
2015,06,23,05,57,12.20
2015,06,23,05,58,12.30
2015,06,23,05,59,12.30
2015,06,23,06,00,12.40
2015,06,23,06,01,12.40
2015,06,23,06,02,12.50
2015,06,23,06,03,12.50
2015,06,23,06,04,12.60
2015,06,23,06,05,12.60
2015,06,23,06,06,12.70
2015,06,23,06,07,12.70
2015,06,23,06,08,12.80
2015,06,23,06,09,12.80
2015,06,23,06,10,12.90
2015,06,23,06,11,12.90
2015,06,23,06,12,13.00
2015,06,23,06,13,13.00
2015,06,23,06,14,13.00
2015,06,23,06,15,13.10
2015,06,23,06,16,13.10
2015,06,23,06,17,13.20
2015,06,23,06,18,13.20
2015,06,23,06,19,13.20
2015,06,23,06,20,13.20
2015,06,23,06,21,13.20
2015,06,23,06,22,13.20
2015,06,23,06,23,13.20
2015,06,23,06,24,13.10
2015,06,23,06,25,13.10
2015,06,23,06,26,13.10
2015,06,23,06,27,13.10
2015,06,23,06,28,13.10
2015,06,23,06,29,13.10
2015,06,23,06,30,13.10
2015,06,23,06,31,13.10
2015,06,23,06,32,13.10
2015,06,23,06,33,13.10
2015,06,23,06,34,13.10
2015,06,23,06,35,13.10
2015,06,23,06,36,13.10
2015,06,23,06,37,13.10
2015,06,23,06,38,13.20
2015,06,23,06,39,13.20
2015,06,23,06,40,13.20
2015,06,23,06,41,13.30
2015,06,23,06,42,13.30
2015,06,23,06,43,13.30
2015,06,23,06,44,13.40
2015,06,23,06,45,13.40
2015,06,23,06,46,13.50
2015,06,23,06,47,13.50
2015,06,23,06,48,13.60
2015,06,23,06,49,13.70
2015,06,23,06,50,13.70
2015,06,23,06,51,13.80
2015,06,23,06,52,13.80
2015,06,23,06,53,13.90
2015,06,23,06,54,13.90
2015,06,23,06,55,14.00
2015,06,23,06,56,14.00
2015,06,23,06,57,14.10
2015,06,23,06,58,14.10
2015,06,23,06,59,14.20
2015,06,23,07,00,14.20
2015,06,23,07,01,14.30
2015,06,23,07,02,14.30
2015,06,23,07,03,14.40
2015,06,23,07,04,14.40
2015,06,23,07,05,14.50
2015,06,23,07,06,14.50
2015,06,23,07,07,14.60
2015,06,23,07,08,14.60
2015,06,23,07,09,14.70
2015,06,23,07,10,14.70
2015,06,23,07,11,14.70
2015,06,23,07,12,14.70
2015,06,23,07,13,14.80
2015,06,23,07,14,14.80
2015,06,23,07,15,14.80
2015,06,23,07,16,14.80
2015,06,23,07,17,14.90
2015,06,23,07,18,14.90
2015,06,23,07,19,14.90
2015,06,23,07,20,14.90
2015,06,23,07,21,14.90
2015,06,23,07,22,14.90
2015,06,23,07,23,15.00
2015,06,23,07,24,15.00
2015,06,23,07,25,15.00
2015,06,23,07,26,15.10
2015,06,23,07,27,15.10
2015,06,23,07,28,15.10
2015,06,23,07,29,15.10
2015,06,23,07,30,15.10
2015,06,23,07,31,15.10
2015,06,23,07,32,15.10
2015,06,23,07,33,15.10
2015,06,23,07,34,15.20
2015,06,23,07,35,15.20
2015,06,23,07,36,15.20
2015,06,23,07,37,15.20
2015,06,23,07,38,15.20
2015,06,23,07,39,15.20
2015,06,23,07,40,15.30
2015,06,23,07,41,15.30
2015,06,23,07,42,15.30
2015,06,23,07,43,15.40
2015,06,23,07,44,15.40
2015,06,23,07,45,15.40
2015,06,23,07,46,15.40
2015,06,23,07,47,15.50
2015,06,23,07,48,15.50
2015,06,23,07,49,15.50
2015,06,23,07,50,15.50
2015,06,23,07,51,15.50
2015,06,23,07,52,15.60
2015,06,23,07,53,15.60
2015,06,23,07,54,15.60
2015,06,23,07,55,15.60
2015,06,23,07,56,15.60
2015,06,23,07,57,15.60
2015,06,23,07,58,15.60
2015,06,23,07,59,15.70
2015,06,23,08,00,15.70
2015,06,23,08,01,15.70
2015,06,23,08,02,15.70
2015,06,23,08,03,15.70
2015,06,23,08,04,15.70
2015,06,23,08,05,15.70
2015,06,23,08,06,15.70
2015,06,23,08,07,15.80
2015,06,23,08,08,15.80
2015,06,23,08,09,15.80
2015,06,23,08,10,15.80
2015,06,23,08,11,15.80
2015,06,23,08,12,15.90
2015,06,23,08,13,15.90
2015,06,23,08,14,15.90
2015,06,23,08,15,16.00
2015,06,23,08,16,16.00
2015,06,23,08,17,16.10
2015,06,23,08,18,16.10
2015,06,23,08,19,16.20
2015,06,23,08,20,16.30
2015,06,23,08,21,16.40
2015,06,23,08,22,16.50
2015,06,23,08,23,16.60
2015,06,23,08,24,16.70
2015,06,23,08,25,16.90
2015,06,23,08,26,17.00
2015,06,23,08,27,17.00
2015,06,23,08,28,17.00
2015,06,23,08,29,17.00
2015,06,23,08,30,17.00
2015,06,23,08,31,17.00
2015,06,23,08,32,17.00
2015,06,23,08,33,17.10
2015,06,23,08,34,17.20
2015,06,23,08,35,17.20
2015,06,23,08,36,17.20
2015,06,23,08,37,17.20
2015,06,23,08,38,17.10
2015,06,23,08,39,17.10
2015,06,23,08,40,17.10
2015,06,23,08,41,17.20
2015,06,23,08,42,17.30
2015,06,23,08,43,17.30
2015,06,23,08,44,17.40
2015,06,23,08,45,17.30
2015,06,23,08,46,17.20
2015,06,23,08,47,17.10
2015,06,23,08,48,17.00
2015,06,23,08,49,17.00
2015,06,23,08,50,17.00
2015,06,23,08,51,17.00
2015,06,23,08,52,17.00
2015,06,23,08,53,17.00
2015,06,23,08,54,16.90
2015,06,23,08,55,16.90
2015,06,23,08,56,16.90
2015,06,23,08,57,16.90
2015,06,23,08,58,16.90
2015,06,23,08,59,17.00
2015,06,23,09,00,17.00
2015,06,23,09,01,17.10
2015,06,23,09,02,17.20
2015,06,23,09,03,17.20
2015,06,23,09,04,17.30
2015,06,23,09,05,17.30
2015,06,23,09,06,17.40
2015,06,23,09,07,17.40
2015,06,23,09,08,17.40
2015,06,23,09,09,17.40
2015,06,23,09,10,17.50
2015,06,23,09,11,17.60
2015,06,23,09,12,17.70
2015,06,23,09,13,17.90
2015,06,23,09,14,18.00
2015,06,23,09,15,18.10
2015,06,23,09,16,18.30
2015,06,23,09,17,18.40
2015,06,23,09,18,18.40
2015,06,23,09,19,18.50
2015,06,23,09,20,18.50
2015,06,23,09,21,18.50
2015,06,23,09,22,18.60
2015,06,23,09,23,18.60
2015,06,23,09,24,18.50
2015,06,23,09,25,18.50
2015,06,23,09,26,18.50
2015,06,23,09,27,18.60
2015,06,23,09,28,18.60
2015,06,23,09,29,18.60
2015,06,23,09,30,18.60
2015,06,23,09,31,18.60
2015,06,23,09,32,18.60
2015,06,23,09,33,18.60
2015,06,23,09,34,18.50
2015,06,23,09,35,18.30
2015,06,23,09,36,18.20
2015,06,23,09,37,18.20
2015,06,23,09,38,18.20
2015,06,23,09,39,18.20
2015,06,23,09,40,18.20
2015,06,23,09,41,18.30
2015,06,23,09,42,18.40
2015,06,23,09,43,18.50
2015,06,23,09,44,18.50
2015,06,23,09,45,18.60
2015,06,23,09,46,18.70
2015,06,23,09,47,18.80
2015,06,23,09,48,18.80
2015,06,23,09,49,18.90
2015,06,23,09,50,19.00
2015,06,23,09,51,19.10
2015,06,23,09,52,19.10
2015,06,23,09,53,19.00
2015,06,23,09,54,18.90
2015,06,23,09,55,18.80
2015,06,23,09,56,18.80
2015,06,23,09,57,18.70
2015,06,23,09,58,18.80
2015,06,23,09,59,18.80
2015,06,23,10,00,18.90
2015,06,23,10,01,18.90
2015,06,23,10,02,19.00
2015,06,23,10,03,19.10
2015,06,23,10,04,19.20
2015,06,23,10,05,19.30
2015,06,23,10,06,19.40
2015,06,23,10,07,19.50
2015,06,23,10,08,19.50
2015,06,23,10,09,19.60
2015,06,23,10,10,19.70
2015,06,23,10,11,19.70
2015,06,23,10,12,19.70
2015,06,23,10,13,19.80
2015,06,23,10,14,19.70
2015,06,23,10,15,19.60
2015,06,23,10,16,19.60
2015,06,23,10,17,19.60
2015,06,23,10,18,19.60
2015,06,23,10,19,19.60
2015,06,23,10,20,19.60
2015,06,23,10,21,19.60
2015,06,23,10,22,19.70
2015,06,23,10,23,19.80
2015,06,23,10,24,19.90
2015,06,23,10,25,19.90
2015,06,23,10,26,19.80
2015,06,23,10,27,19.80
2015,06,23,10,28,19.80
2015,06,23,10,29,19.80
2015,06,23,10,30,19.70
2015,06,23,10,31,19.70
2015,06,23,10,32,19.60
2015,06,23,10,33,19.50
2015,06,23,10,34,19.60
2015,06,23,10,35,19.70
2015,06,23,10,36,19.80
2015,06,23,10,37,19.80
2015,06,23,10,38,19.80
2015,06,23,10,39,19.80
2015,06,23,10,40,19.80
2015,06,23,10,41,19.70
2015,06,23,10,42,19.70
2015,06,23,10,43,19.80
2015,06,23,10,44,19.80
2015,06,23,10,45,19.70
2015,06,23,10,46,19.70
2015,06,23,10,47,19.70
2015,06,23,10,48,19.80
2015,06,23,10,49,19.80
2015,06,23,10,50,19.80
2015,06,23,10,51,19.90
2015,06,23,10,52,19.90
2015,06,23,10,53,20.00
2015,06,23,10,54,20.00
2015,06,23,10,55,20.10
2015,06,23,10,56,20.20
2015,06,23,10,57,20.10
2015,06,23,10,58,20.10
2015,06,23,10,59,20.20
2015,06,23,11,00,20.30
2015,06,23,11,01,20.40
2015,06,23,11,02,20.40
2015,06,23,11,03,20.40
2015,06,23,11,04,20.40
2015,06,23,11,05,20.50
2015,06,23,11,06,20.60
2015,06,23,11,07,20.60
2015,06,23,11,08,20.70
2015,06,23,11,09,20.70
2015,06,23,11,10,20.80
2015,06,23,11,11,20.80
2015,06,23,11,12,20.80
2015,06,23,11,13,20.80
2015,06,23,11,14,20.80
2015,06,23,11,15,20.80
2015,06,23,11,16,20.70
2015,06,23,11,17,20.60
2015,06,23,11,18,20.60
2015,06,23,11,19,20.70
2015,06,23,11,20,20.70
2015,06,23,11,21,20.70
2015,06,23,11,22,20.60
2015,06,23,11,23,20.60
2015,06,23,11,24,20.60
2015,06,23,11,25,20.60
2015,06,23,11,26,20.70
2015,06,23,11,27,20.80
2015,06,23,11,28,20.90
2015,06,23,11,29,21.00
2015,06,23,11,30,21.10
2015,06,23,11,31,21.20
2015,06,23,11,32,21.10
2015,06,23,11,33,21.10
2015,06,23,11,34,21.00
2015,06,23,11,35,20.90
2015,06,23,11,36,20.80
2015,06,23,11,37,20.70
2015,06,23,11,38,20.60
2015,06,23,11,39,20.60
2015,06,23,11,40,20.60
2015,06,23,11,41,20.70
2015,06,23,11,42,20.80
2015,06,23,11,43,20.80
2015,06,23,11,44,20.90
2015,06,23,11,45,20.80
2015,06,23,11,46,20.80
2015,06,23,11,47,20.70
2015,06,23,11,48,20.70
2015,06,23,11,49,20.70
2015,06,23,11,50,20.70
2015,06,23,11,51,20.80
2015,06,23,11,52,20.80
2015,06,23,11,53,20.90
2015,06,23,11,54,20.90
2015,06,23,11,55,20.90
2015,06,23,11,56,20.90
2015,06,23,11,57,20.90
2015,06,23,11,58,20.80
2015,06,23,11,59,20.70
2015,06,23,12,00,20.70
2015,06,23,12,01,20.60
2015,06,23,12,02,20.60
2015,06,23,12,03,20.60
2015,06,23,12,04,20.70
2015,06,23,12,05,20.80
2015,06,23,12,06,21.10
2015,06,23,12,07,21.20
2015,06,23,12,08,21.20
2015,06,23,12,09,21.10
2015,06,23,12,10,20.90
2015,06,23,12,11,20.80
2015,06,23,12,12,20.60
2015,06,23,12,13,20.60
2015,06,23,12,14,20.60
2015,06,23,12,15,20.60
2015,06,23,12,16,20.60
2015,06,23,12,17,20.70
2015,06,23,12,18,20.90
2015,06,23,12,19,21.00
2015,06,23,12,20,21.00
2015,06,23,12,21,21.00
2015,06,23,12,22,21.10
2015,06,23,12,23,21.10
2015,06,23,12,24,21.10
2015,06,23,12,25,21.10
2015,06,23,12,26,21.00
2015,06,23,12,27,20.90
2015,06,23,12,28,20.90
2015,06,23,12,29,20.90
2015,06,23,12,30,20.90
2015,06,23,12,31,21.00
2015,06,23,12,32,21.00
2015,06,23,12,33,21.00
2015,06,23,12,34,21.10
2015,06,23,12,35,21.10
2015,06,23,12,36,21.10
2015,06,23,12,37,21.10
2015,06,23,12,38,21.20
2015,06,23,12,39,21.40
2015,06,23,12,40,21.40
2015,06,23,12,41,21.50
2015,06,23,12,42,21.40
2015,06,23,12,43,21.20
2015,06,23,12,44,21.00
2015,06,23,12,45,20.90
2015,06,23,12,46,20.90
2015,06,23,12,47,20.80
2015,06,23,12,48,20.80
2015,06,23,12,49,20.80
2015,06,23,12,50,20.80
2015,06,23,12,51,20.80
2015,06,23,12,52,20.80
2015,06,23,12,53,20.70
2015,06,23,12,54,20.70
2015,06,23,12,55,20.70
2015,06,23,12,56,20.70
2015,06,23,12,57,20.70
2015,06,23,12,58,20.70
2015,06,23,12,59,20.80
2015,06,23,13,00,20.80
2015,06,23,13,01,21.00
2015,06,23,13,02,21.10
2015,06,23,13,03,21.20
2015,06,23,13,04,21.20
2015,06,23,13,05,21.20
2015,06,23,13,06,21.30
2015,06,23,13,07,21.30
2015,06,23,13,08,21.30
2015,06,23,13,09,21.30
2015,06,23,13,10,21.20
2015,06,23,13,11,21.20
2015,06,23,13,12,21.10
2015,06,23,13,13,21.10
2015,06,23,13,14,21.20
2015,06,23,13,15,21.20
2015,06,23,13,16,21.20
2015,06,23,13,17,21.20
2015,06,23,13,18,21.30
2015,06,23,13,19,21.40
2015,06,23,13,20,21.40
2015,06,23,13,21,21.60
2015,06,23,13,22,21.70
2015,06,23,13,23,21.80
2015,06,23,13,24,21.90
2015,06,23,13,25,21.90
2015,06,23,13,26,22.00
2015,06,23,13,27,22.00
2015,06,23,13,28,22.00
2015,06,23,13,29,22.00
2015,06,23,13,30,22.10
2015,06,23,13,31,22.10
2015,06,23,13,32,22.10
2015,06,23,13,33,22.10
2015,06,23,13,34,22.20
2015,06,23,13,35,22.30
2015,06,23,13,36,22.30
2015,06,23,13,37,22.30
2015,06,23,13,38,22.10
2015,06,23,13,39,22.00
2015,06,23,13,40,21.90
2015,06,23,13,41,21.80
2015,06,23,13,42,21.80
2015,06,23,13,43,21.80
2015,06,23,13,44,21.80
2015,06,23,13,45,21.80
2015,06,23,13,46,21.80
2015,06,23,13,47,21.80
2015,06,23,13,48,21.90
2015,06,23,13,49,22.00
2015,06,23,13,50,22.20
2015,06,23,13,51,22.20
2015,06,23,13,52,22.30
2015,06,23,13,53,22.40
2015,06,23,13,54,22.40
2015,06,23,13,55,22.40
2015,06,23,13,56,22.50
2015,06,23,13,57,22.50
2015,06,23,13,58,22.50
2015,06,23,13,59,22.50
2015,06,23,14,00,22.40
2015,06,23,14,01,22.30
2015,06,23,14,02,22.30
2015,06,23,14,03,22.20
2015,06,23,14,04,22.20
2015,06,23,14,05,22.30
2015,06,23,14,06,22.30
2015,06,23,14,07,22.30
2015,06,23,14,08,22.40
2015,06,23,14,09,22.50
2015,06,23,14,10,22.60
2015,06,23,14,11,22.60
2015,06,23,14,12,22.60
2015,06,23,14,13,22.60
2015,06,23,14,14,22.60
2015,06,23,14,15,22.60
2015,06,23,14,16,22.60
2015,06,23,14,17,22.60
2015,06,23,14,18,22.50
2015,06,23,14,19,22.50
2015,06,23,14,20,22.40
2015,06,23,14,21,22.40
2015,06,23,14,22,22.40
2015,06,23,14,23,22.40
2015,06,23,14,24,22.50
2015,06,23,14,25,22.50
2015,06,23,14,26,22.60
2015,06,23,14,27,22.70
2015,06,23,14,28,22.80
2015,06,23,14,29,22.90
2015,06,23,14,30,23.00
2015,06,23,14,31,23.10
2015,06,23,14,32,23.10
2015,06,23,14,33,23.10
2015,06,23,14,34,23.00
2015,06,23,14,35,23.00
2015,06,23,14,36,22.90
2015,06,23,14,37,22.80
2015,06,23,14,38,22.80
2015,06,23,14,39,22.80
2015,06,23,14,40,22.80
2015,06,23,14,41,22.80
2015,06,23,14,42,22.80
2015,06,23,14,43,22.90
2015,06,23,14,44,22.90
2015,06,23,14,45,23.00
2015,06,23,14,46,23.10
2015,06,23,14,47,23.10
2015,06,23,14,48,23.10
2015,06,23,14,49,23.10
2015,06,23,14,50,23.10
2015,06,23,14,51,23.10
2015,06,23,14,52,23.10
2015,06,23,14,53,23.20
2015,06,23,14,54,23.30
2015,06,23,14,55,23.30
2015,06,23,14,56,23.30
2015,06,23,14,57,23.30
2015,06,23,14,58,23.30
2015,06,23,14,59,23.30
2015,06,23,15,00,23.30
2015,06,23,15,01,23.40
2015,06,23,15,02,23.40
2015,06,23,15,03,23.50
2015,06,23,15,04,23.60
2015,06,23,15,05,23.70
2015,06,23,15,06,23.70
2015,06,23,15,07,23.70
2015,06,23,15,08,23.80
2015,06,23,15,09,23.90
2015,06,23,15,10,24.00
2015,06,23,15,11,24.10
2015,06,23,15,12,24.20
2015,06,23,15,13,24.20
2015,06,23,15,14,24.10
2015,06,23,15,15,24.00
2015,06,23,15,16,23.80
2015,06,23,15,17,23.70
2015,06,23,15,18,23.70
2015,06,23,15,19,23.60
2015,06,23,15,20,23.70
2015,06,23,15,21,23.80
2015,06,23,15,22,23.80
2015,06,23,15,23,23.80
2015,06,23,15,24,23.80
2015,06,23,15,25,23.80
2015,06,23,15,26,23.80
2015,06,23,15,27,23.70
2015,06,23,15,28,23.80
2015,06,23,15,29,23.80
2015,06,23,15,30,23.80
2015,06,23,15,31,23.80
2015,06,23,15,32,23.80
2015,06,23,15,33,23.80
2015,06,23,15,34,23.90
2015,06,23,15,35,24.00
2015,06,23,15,36,24.10
2015,06,23,15,37,24.10
2015,06,23,15,38,24.00
2015,06,23,15,39,24.00
2015,06,23,15,40,24.00
2015,06,23,15,41,24.00
2015,06,23,15,42,24.00
2015,06,23,15,43,24.00
2015,06,23,15,44,23.90
2015,06,23,15,45,23.90
2015,06,23,15,46,23.90
2015,06,23,15,47,23.90
2015,06,23,15,48,23.90
2015,06,23,15,49,23.90
2015,06,23,15,50,23.90
2015,06,23,15,51,23.90
2015,06,23,15,52,23.90
2015,06,23,15,53,23.90
2015,06,23,15,54,23.90
2015,06,23,15,55,24.00
2015,06,23,15,56,24.10
2015,06,23,15,57,24.20
2015,06,23,15,58,24.30
2015,06,23,15,59,24.40
2015,06,23,16,00,24.50
2015,06,23,16,01,24.50
2015,06,23,16,02,24.50
2015,06,23,16,03,24.60
2015,06,23,16,04,24.50
2015,06,23,16,05,24.50
2015,06,23,16,06,24.50
2015,06,23,16,07,24.50
2015,06,23,16,08,24.30
2015,06,23,16,09,24.20
2015,06,23,16,10,24.10
2015,06,23,16,11,24.00
2015,06,23,16,12,23.90
2015,06,23,16,13,23.90
2015,06,23,16,14,23.90
2015,06,23,16,15,23.90
2015,06,23,16,16,23.90
2015,06,23,16,17,24.00
2015,06,23,16,18,24.00
2015,06,23,16,19,24.00
2015,06,23,16,20,24.00
2015,06,23,16,21,24.00
2015,06,23,16,22,24.00
2015,06,23,16,23,24.00
2015,06,23,16,24,24.00
2015,06,23,16,25,24.20
2015,06,23,16,26,24.30
2015,06,23,16,27,24.40
2015,06,23,16,28,24.50
2015,06,23,16,29,24.50
2015,06,23,16,30,24.40
2015,06,23,16,31,24.30
2015,06,23,16,32,24.20
2015,06,23,16,33,24.10
2015,06,23,16,34,24.00
2015,06,23,16,35,23.90
2015,06,23,16,36,23.90
2015,06,23,16,37,23.90
2015,06,23,16,38,23.90
2015,06,23,16,39,23.90
2015,06,23,16,40,24.00
2015,06,23,16,41,24.10
2015,06,23,16,42,24.10
2015,06,23,16,43,24.20
2015,06,23,16,44,24.30
2015,06,23,16,45,24.40
2015,06,23,16,46,24.40
2015,06,23,16,47,24.40
2015,06,23,16,48,24.40
2015,06,23,16,49,24.40
2015,06,23,16,50,24.40
2015,06,23,16,51,24.40
2015,06,23,16,52,24.30
2015,06,23,16,53,24.30
2015,06,23,16,54,24.30
2015,06,23,16,55,24.20
2015,06,23,16,56,24.20
2015,06,23,16,57,24.20
2015,06,23,16,58,24.20
2015,06,23,16,59,24.30
2015,06,23,17,00,24.30
2015,06,23,17,01,24.40
2015,06,23,17,02,24.40
2015,06,23,17,03,24.40
2015,06,23,17,04,24.30
2015,06,23,17,05,24.30
2015,06,23,17,06,24.20
2015,06,23,17,07,24.30
2015,06,23,17,08,24.30
2015,06,23,17,09,24.40
2015,06,23,17,10,24.40
2015,06,23,17,11,24.50
2015,06,23,17,12,24.50
2015,06,23,17,13,24.50
2015,06,23,17,14,24.40
2015,06,23,17,15,24.40
2015,06,23,17,16,24.40
2015,06,23,17,17,24.30
2015,06,23,17,18,24.20
2015,06,23,17,19,24.10